RH
49 48 47 47 46 41 33 31 31 30 29 27 26 26 25 25 24 24 25 24 23 24 24 24 25 25 26 26 25 25 25 25 25 25 25 25 25 25 25 25 25 25 24 24 24 23 24 24 24 25 25 25 26 25 25 26 25 25 24 24 24 23 32 45 49 48 46 39 38 52 72 79 80 91 99 98 96 97 96 95 97 97 95 95 94
47 48 50 51 51 44 36 32 32 31 30 28 27 25 24 25 24 24 23 23 24 24 24 25 25 25 26 25 25 25 24 25 24 24 24 24 23 22 21 20 19 18 17 16 16 15 15 16 16 17 18 18 19 20 21 21 22 22 22 22 21 21 23 25 32 46 52 51 48 46 58 74 79 85 96 99 97 98 99 98 98 97 94 94 94
44 48 53 56 55 47 37 33 33 32 30 28 26 24 24 24 24 23 23 23 24 24 25 26 26 27 27 26 26 25 25 24 23 22 21 19 17 15 13 12 10 9 8 7 7 6 6 6 7 7 8 9 11 12 14 15 16 18 19 20 20 19 21 22 22 25 31 47 60 53 52 67 77 83 91 97 99 99 98 99 100 98 93 93 96
43 50 58 62 59 48 37 34 34 33 30 28 26 25 25 24 23 23 24 24 25 25 26 27 27 28 27 26 25 22 20 18 15 13 11 8 7 5 4 3 3 2 2 2 2 2 2 2 2 2 2 3 4 4 6 8 10 13 15 17 18 17 18 19 20 21 20 24 40 57 65 70 73 81 89 93 96 97 97 97 99 99 95 95 98
45 56 66 67 59 45 37 36 35 33 31 29 27 26 26 25 24 24 24 25 26 27 28 29 29 28 25 21 18 13 10 8 5 4 3 2 1 1 1 1 1 1 1 1 1 1 1 1 1 1 1 1 1 1 2 3 4 6 9 12 15 17 18 18 18 20 21 17 21 40 63 70 70 77 86 91 92 93 96 98 98 100 100 98 97
53 67 73 66 53 42 38 38 35 34 33 30 28 27 27 26 25 25 26 27 28 30 30 29 27 22 17 12 7 4 3 2 1 1 1 1 1 1 1 1 1 1 1 1 1 1 1 1 1 1 1 1 1 1 1 1 1 2 3 6 10 14 15 17 19 18 19 20 17 25 54 73 73 76 84 90 94 94 96 98 99 100 100 98 97
66 73 69 57 47 42 40 39 37 36 35 31 29 29 28 27 26 27 28 30 31 30 28 25 19 13 7 4 2 1 1 1 1 1 -0 1 1 1 1 1 1 1 1 1 1 1 1 1 1 1 1 1 1 1 1 1 1 1 1 2 4 8 11 14 18 19 19 21 17 22 48 70 72 76 83 88 96 99 96 96 98 99 100 99 97
70 68 60 51 46 44 43 41 40 39 37 33 31 30 29 28 29 30 31 31 30 27 22 15 9 5 2 1 1 1 1 1 1 1 1 1 1 1 1 1 1 1 1 1 1 1 1 1 1 1 1 1 1 1 1 1 1 1 1 2 1 2 6 9 14 19 20 21 20 19 34 56 69 79 86 87 92 95 94 95 96 96 99 99 97
67 61 54 51 49 47 46 45 44 43 39 35 33 32 31 31 32 33 31 29 24 18 12 6 3 2 1 1 1 1 1 1 1 1 1 1 1 1 1 1 1 1 1 1 1 1 1 1 1 1 1 1 1 1 1 1 2 1 -0 1 2 -0 2 4 9 15 18 21 22 17 27 54 71 77 83 88 91 94 95 96 96 96 98 99 98
63 58 54 53 52 51 50 49 48 44 40 36 34 33 34 34 34 31 25 20 14 8 4 2 1 1 1 1 1 1 1 1 1 1 1 1 1 1 1 1 1 1 1 1 1 1 1 1 1 1 1 1 1 1 2 1 1 3 2 1 2 1 1 2 4 10 15 19 22 20 26 47 66 72 81 90 93 96 98 95 95 98 98 97 95
62 58 57 57 57 56 54 51 48 44 39 37 36 36 36 33 28 22 15 10 5 3 1 1 1 1 1 1 1 1 2 1 1 1 1 2 1 1 2 1 1 1 1 1 1 1 1 1 1 1 1 1 1 1 2 2 2 3 4 4 4 3 3 6 8 9 11 14 20 23 22 35 60 76 83 92 97 96 97 98 97 97 96 94 93
63 61 61 61 60 59 55 51 46 42 39 38 38 36 32 25 17 10 6 3 2 1 1 1 1 1 1 2 1 1 2 1 2 2 1 2 1 1 2 1 1 1 1 1 1 1 1 1 1 2 1 1 2 1 1 2 3 5 6 6 8 7 7 13 17 19 17 12 14 23 24 30 59 82 82 86 97 96 94 99 99 97 95 93 93
67 67 66 64 61 57 52 47 43 40 39 39 35 29 20 13 8 4 2 2 1 1 1 1 2 2 1 2 2 2 2 2 2 2 1 2 2 1 2 1 1 2 1 1 1 1 1 1 1 1 1 1 1 1 1 2 3 7 10 10 10 10 10 14 24 35 39 27 12 17 28 34 53 81 87 82 89 94 92 94 98 99 97 94 93
70 70 68 63 57 52 47 44 42 40 38 32 23 15 9 5 3 1 1 2 1 1 2 2 2 2 2 2 2 2 2 2 2 2 2 2 2 1 2 2 1 1 2 1 2 1 1 1 1 1 1 2 2 2 3 4 5 10 16 18 18 17 13 12 22 38 53 55 33 15 28 42 48 71 92 87 82 88 91 91 95 97 97 96 97
69 67 63 57 52 48 45 43 40 35 28 19 11 6 4 2 1 1 1 2 2 2 2 2 2 2 2 2 2 2 2 2 2 2 2 2 2 2 2 2 2 2 2 1 2 2 1 1 2 1 1 2 4 6 7 8 13 21 28 30 30 29 24 24 34 38 43 61 56 29 27 44 51 68 91 92 85 88 91 92 94 95 96 98 100
68 63 58 53 50 47 45 40 33 24 15 8 5 2 2 1 2 2 2 2 2 2 2 3 2 2 3 2 3 2 2 3 2 2 2 2 2 2 2 2 2 1 2 2 1 2 2 1 1 1 2 3 6 10 13 16 25 36 43 45 45 43 36 37 52 58 52 58 66 54 45 50 58 75 92 95 95 95 93 93 94 94 96 97 98
65 60 57 55 52 51 50 42 29 17 8 4 2 1 2 2 2 2 2 2 3 2 3 3 3 3 3 3 3 3 3 3 3 2 3 2 2 2 2 2 2 2 2 2 2 2 2 2 2 1 2 5 10 16 21 27 39 51 56 54 53 53 49 44 54 68 72 70 72 78 82 77 76 88 99 100 100 96 91 92 95 97 98 96 95
65 62 59 58 57 58 53 40 22 9 3 2 2 2 2 2 2 3 3 2 3 3 3 3 3 3 3 3 3 3 3 3 3 3 3 3 2 2 2 2 2 2 2 2 2 2 2 2 2 3 4 9 16 24 31 39 49 58 62 61 61 65 65 58 55 63 76 82 82 90 100 96 87 90 97 99 98 92 90 94 97 98 99 97 95
68 65 62 61 58 50 36 19 8 3 2 2 2 2 2 2 3 3 3 3 3 3 3 4 3 3 4 3 3 3 3 3 3 3 3 3 3 3 3 2 2 2 2 2 2 2 2 3 4 6 10 15 23 32 42 52 60 67 71 72 75 81 80 72 66 66 74 87 94 98 99 93 84 83 88 95 98 94 92 95 97 98 98 98 97
68 64 58 49 36 22 10 4 2 2 2 2 2 2 3 3 3 3 3 3 3 4 4 4 4 4 4 4 4 4 4 4 3 3 3 3 3 3 3 3 3 2 2 2 2 2 3 5 7 12 17 22 31 42 53 64 74 81 86 86 85 90 94 92 89 86 87 93 99 101 98 91 88 88 88 93 98 97 95 95 96 96 96 97 98
59 50 37 22 10 4 2 2 2 2 2 2 3 3 3 3 3 4 4 4 4 4 4 4 5 4 4 4 4 4 4 4 4 4 4 3 3 3 3 3 3 3 3 2 3 5 6 10 15 21 26 31 40 50 61 73 82 89 95 97 96 97 99 101 100 99 98 99 99 100 99 95 95 96 94 93 96 98 98 98 95 94 96 97 98
41 27 14 5 2 3 2 2 2 2 3 3 3 3 3 4 4 4 4 5 5 5 5 5 5 5 5 5 5 4 5 4 4 4 4 4 4 3 3 3 3 3 3 3 5 7 11 18 26 31 35 41 48 56 66 76 83 89 96 100 100 100 100 100 100 100 100 101 100 100 101 99 97 98 98 97 98 99 100 100 95 93 95 95 96
18 8 3 2 2 2 2 3 3 2 3 3 3 4 4 4 4 4 5 5 5 5 6 6 6 6 5 5 5 5 5 5 5 5 4 4 4 4 3 4 4 3 4 5 7 10 16 25 33 36 40 46 52 60 70 78 83 90 98 100 100 100 100 100 101 100 100 100 100 99 100 100 99 100 100 100 100 100 100 99 97 96 97 96 95
5 2 2 2 2 2 3 3 3 3 3 3 3 4 4 4 5 5 5 6 6 6 6 6 6 6 6 6 6 5 5 5 5 5 5 4 4 4 4 4 4 4 5 6 9 14 20 28 32 36 40 45 50 59 71 81 87 93 98 101 100 100 100 100 100 100 100 100 100 100 100 100 99 99 100 99 100 100 100 100 99 99 99 98 96
2 2 2 2 2 3 3 3 3 3 4 4 4 5 5 5 6 6 6 7 7 7 7 7 7 7 6 6 6 6 6 6 5 5 6 5 5 5 4 5 5 5 6 8 11 15 21 27 29 32 37 40 45 54 66 79 89 94 95 97 98 98 98 98 99 100 98 98 99 100 100 100 99 99 100 100 100 100 100 100 100 100 100 100 99
2 2 3 3 3 3 3 3 4 4 4 5 5 5 5 6 6 7 7 7 8 8 8 8 8 8 7 7 7 6 6 6 6 6 6 5 5 5 5 5 5 6 7 9 11 13 17 22 25 27 32 36 40 48 59 71 81 85 87 90 93 94 95 95 96 97 97 96 96 98 99 100 100 99 100 100 100 100 101 100 99 99 99 98 97
2 3 3 3 3 4 4 4 4 4 5 5 5 6 7 7 7 8 8 8 9 9 9 9 9 8 8 7 7 7 7 7 7 7 6 6 6 6 6 6 5 6 7 9 10 11 14 18 21 24 28 32 35 40 50 59 67 73 78 82 86 90 92 92 92 94 96 97 97 99 100 100 100 99 99 100 100 100 100 100 99 98 96 94 92
3 3 3 3 4 4 4 4 5 5 5 6 7 7 8 8 8 9 9 9 10 10 10 10 9 8 8 8 8 8 8 8 7 7 7 7 7 6 6 6 6 5 7 8 9 11 13 15 17 19 22 26 29 33 39 45 52 60 68 74 80 84 86 86 85 85 88 91 93 95 97 99 99 99 99 99 99 100 100 99 95 92 89 88 87
3 3 3 4 4 4 4 5 6 6 7 8 8 9 9 10 10 10 10 10 11 11 11 11 10 9 9 8 8 8 8 8 8 8 8 7 7 7 7 7 7 6 7 8 9 10 12 12 12 14 17 20 23 27 31 36 42 48 54 61 68 72 75 78 80 80 79 80 81 84 87 92 95 97 97 96 96 97 100 99 95 91 88 85 83
3 4 4 4 4 5 6 6 7 8 8 9 10 10 11 11 11 11 12 12 11 11 12 11 11 11 9 9 9 9 9 9 9 9 9 8 8 8 8 7 7 7 7 8 8 9 10 10 10 12 13 16 19 22 25 29 33 37 43 48 54 59 64 70 76 78 77 76 76 76 76 78 83 88 90 92 92 94 97 99 98 97 95 91 87
4 4 4 5 5 6 6 7 8 9 10 11 12 12 12 12 13 13 12 13 12 12 12 12 12 12 11 10 10 10 10 10 10 9 9 9 9 9 9 8 8 8 8 8 8 8 8 9 10 11 12 13 15 17 20 24 27 29 34 39 43 49 54 60 67 70 70 71 73 72 68 67 70 75 80 84 87 89 91 93 93 94 95 94 91
4 5 5 6 6 7 8 9 10 11 12 12 13 13 14 14 14 14 13 14 14 13 13 13 13 13 12 11 11 11 10 11 10 10 10 10 9 10 10 9 9 9 9 8 8 8 8 8 9 10 10 12 13 13 15 19 22 25 28 31 36 41 46 52 58 60 61 63 66 66 65 62 63 65 69 73 76 78 79 82 84 86 89 91 89
5 5 6 6 8 9 9 11 12 12 13 14 14 14 15 15 15 15 15 14 14 14 14 14 14 14 14 13 12 12 11 11 11 11 11 11 11 11 10 10 10 10 9 9 9 9 9 9 9 9 9 10 11 11 12 14 16 21 24 27 30 34 38 44 48 50 53 56 58 58 60 60 59 61 63 64 66 67 69 72 77 80 83 84 84
5 6 7 8 9 10 11 12 13 13 14 14 15 15 16 16 16 16 15 14 15 15 15 15 15 14 15 14 13 13 12 12 12 12 12 12 12 11 11 11 11 11 10 10 10 10 10 9 9 9 9 10 9 10 11 11 12 15 18 22 26 28 30 34 38 40 44 50 52 52 54 55 55 57 59 60 60 61 63 66 72 76 79 82 83
6 7 8 9 11 12 12 13 14 14 14 15 16 16 16 16 16 16 16 15 15 15 15 15 16 15 15 15 15 14 13 12 12 13 13 13 13 13 13 12 12 12 12 11 11 11 11 11 11 10 10 10 10 10 10 10 10 11 13 15 19 23 24 27 31 33 36 41 45 47 50 51 52 53 56 57 58 59 60 61 64 68 74 79 83
8 8 10 12 12 13 14 14 14 15 15 16 16 17 17 17 17 16 16 16 16 16 16 16 16 16 16 16 15 14 13 13 13 13 13 14 14 14 14 13 13 13 13 13 13 13 12 12 12 12 11 11 11 11 11 11 10 11 11 11 13 17 19 22 25 27 29 32 36 38 42 46 49 50 51 52 54 56 57 59 59 61 65 71 76
9 9 11 13 13 13 14 14 15 16 16 16 17 17 17 17 17 16 17 17 17 17 17 17 17 17 16 16 16 15 14 14 14 14 14 14 15 15 15 15 15 15 15 15 15 15 15 15 15 14 14 14 13 12 12 12 12 12 11 11 11 13 14 17 20 22 23 25 27 29 32 36 41 44 47 48 49 51 53 54 56 57 58 61 64
10 11 13 13 14 14 15 15 16 16 17 17 18 18 18 18 18 17 17 18 18 18 17 17 17 17 16 17 16 15 15 14 14 15 15 15 15 16 16 16 16 16 16 17 17 17 18 18 18 18 17 17 16 16 15 14 13 13 12 12 12 12 12 13 15 17 19 20 22 24 26 28 31 36 39 42 44 46 48 49 52 53 54 54 55
11 13 13 13 14 14 15 15 16 17 17 18 18 19 19 19 19 19 18 18 18 19 18 18 18 17 17 17 17 16 16 15 15 15 16 16 17 17 17 17 18 17 17 18 18 20 21 21 21 21 21 20 20 20 19 18 17 16 15 14 13 13 12 12 12 13 14 16 18 20 22 23 25 28 31 33 36 39 41 43 45 47 49 50 52
12 13 13 13 14 14 15 16 16 16 17 18 18 19 20 20 20 20 19 19 19 19 19 19 19 18 17 18 18 17 17 16 16 16 16 17 17 18 18 18 19 19 19 19 19 21 23 24 24 24 24 24 24 24 23 23 22 21 20 18 17 15 14 13 13 13 12 13 14 16 18 20 21 23 24 26 28 31 33 36 37 39 41 43 46
12 13 13 13 14 14 14 15 15 16 17 17 18 19 20 20 21 21 20 20 21 20 20 20 19 19 18 18 18 18 18 17 17 16 16 17 18 18 19 19 19 20 21 21 21 23 24 26 27 28 27 28 28 28 28 27 27 26 26 24 23 21 19 17 15 14 13 13 13 13 14 16 17 19 21 22 23 25 26 29 32 34 35 36 38
12 12 12 13 13 14 14 14 14 15 15 16 17 18 19 20 21 22 22 22 22 21 22 21 20 20 20 19 18 19 18 18 18 17 17 17 18 18 19 20 20 21 22 23 23 24 26 27 29 30 30 31 31 31 31 32 32 32 31 30 30 28 26 24 22 19 17 16 14 13 13 13 14 16 18 19 20 22 22 23 25 28 31 33 34
11 12 12 12 12 13 13 13 13 13 14 15 15 16 18 19 21 22 22 23 23 23 23 23 23 22 21 21 20 20 19 19 19 18 18 18 18 19 19 20 21 21 23 24 26 27 27 29 30 30 31 32 33 33 34 34 35 36 37 37 37 36 34 32 30 27 25 22 19 17 16 14 13 14 15 16 17 19 20 22 22 22 24 27 29
11 11 12 12 12 12 13 13 13 13 13 14 14 15 16 18 19 21 22 23 24 24 24 25 25 25 24 24 23 22 21 21 20 19 19 19 18 18 19 20 21 22 22 24 25 27 28 30 31 31 32 33 34 35 36 37 37 38 39 40 41 41 41 41 39 37 34 31 28 25 22 19 16 15 14 14 15 16 17 19 20 20 22 23 24
10 11 11 11 12 12 12 12 13 13 13 14 14 15 16 17 18 19 21 22 23 24 25 26 26 26 27 27 27 26 25 24 23 22 21 21 20 20 19 19 20 21 22 23 24 26 28 30 32 33 34 35 35 36 38 38 39 40 40 41 42 42 44 45 44 44 43 41 38 35 32 27 24 21 18 16 15 14 15 16 17 17 20 20 20
10 11 11 11 12 12 12 12 13 13 13 14 14 15 16 17 17 18 19 21 22 23 23 25 26 27 28 28 28 29 28 27 26 25 24 23 22 21 21 20 20 21 21 22 23 25 26 28 31 33 35 37 38 38 39 40 41 42 42 42 43 44 46 48 49 49 49 48 46 45 42 39 35 31 28 24 21 17 16 15 15 15 17 18 18
10 11 11 11 11 12 12 12 12 12 13 14 14 15 16 17 18 18 19 20 20 21 22 23 24 25 26 27 28 29 29 29 29 29 28 28 26 24 23 22 22 22 21 22 23 24 25 26 28 31 34 37 40 41 42 42 42 42 42 43 44 46 48 51 53 54 54 53 52 51 50 49 46 42 39 36 32 28 24 20 17 16 15 15 15
10 10 11 11 11 11 11 12 12 13 13 14 14 16 17 17 18 19 19 20 21 21 22 22 23 23 24 25 26 27 28 29 30 31 31 31 30 29 28 27 25 24 23 23 23 23 24 25 26 28 31 35 38 41 44 45 45 44 44 44 45 47 50 52 55 58 59 58 57 56 55 54 54 52 50 47 43 40 36 31 27 23 19 17 16
10 10 10 11 11 11 11 12 12 12 13 14 15 16 17 17 18 19 20 20 21 21 22 22 23 23 24 24 25 26 27 28 29 30 31 32 32 32 32 31 30 28 27 26 25 25 24 25 26 27 28 31 35 39 42 45 47 49 49 47 47 50 53 53 55 58 60 60 60 59 58 58 57 57 57 56 53 51 48 44 40 36 31 27 23
10 10 10 10 11 11 11 12 12 13 14 14 15 16 17 17 18 19 20 20 21 21 22 22 22 23 24 25 25 26 26 27 28 29 30 31 32 32 33 33 33 33 32 30 29 28 27 26 26 27 27 29 31 35 39 42 45 48 51 51 51 52 54 55 56 59 62 62 61 60 60 61 60 59 60 60 60 59 57 54 51 49 45 41 37
10 10 10 10 11 11 11 11 12 13 14 14 15 16 17 18 18 19 20 20 20 21 22 22 22 23 23 23 23 24 26 27 30 32 33 33 33 33 33 33 33 34 35 34 34 33 32 30 29 29 28 29 30 32 35 39 41 43 47 49 49 51 54 56 58 61 65 66 64 62 62 62 62 61 61 61 61 62 62 61 60 58 55 53 50
Wind_Speed
22 21 21 20 19 17 17 16 16 16 16 17 17 16 15 14 14 14 14 14 14 15 17 18 20 22 23 25 26 28 29 30 30 30 31 31 31 31 31 31 31 32 32 32 32 32 32 32 32 31 32 32 32 33 33 33 34 34 35 35 35 35 34 34 36 36 34 35 34 30 28 28 28 29 30 30 33 36 37 40 41 43 47 45 43
22 22 22 21 19 18 17 16 16 16 17 17 17 16 15 14 14 14 14 14 15 17 18 20 22 24 25 27 28 30 31 31 31 31 32 32 32 32 32 33 33 33 33 33 33 33 33 33 34 33 33 33 33 33 33 34 34 34 34 35 35 34 34 36 37 36 35 34 34 32 30 29 29 28 30 30 30 33 36 37 40 43 47 48 44
22 22 22 21 20 18 18 17 17 17 17 18 17 16 15 14 14 14 15 16 17 19 21 22 24 26 27 29 30 31 31 31 32 32 32 33 33 33 33 33 34 33 34 34 34 34 34 35 35 35 34 34 34 34 34 34 34 34 34 34 35 35 35 35 36 38 37 34 32 33 31 30 30 28 29 30 29 30 33 35 38 40 43 48 46
22 23 22 21 20 19 18 18 17 17 17 18 17 16 15 15 15 15 16 17 19 21 23 24 26 27 29 30 30 31 31 31 32 32 32 32 31 31 31 31 31 31 31 32 32 32 33 33 34 35 35 35 35 36 35 35 35 35 35 35 35 36 36 36 36 37 39 37 33 31 31 30 30 29 29 30 29 29 30 31 35 38 40 45 48
21 22 22 21 20 20 19 18 18 17 18 18 17 16 16 16 16 17 18 19 21 23 25 26 28 29 30 30 30 30 30 29 29 28 28 28 28 28 27 28 28 28 29 29 29 30 30 31 32 33 34 34 35 36 36 36 36 36 36 36 36 36 36 36 36 36 38 39 35 32 32 32 31 29 29 30 29 28 29 29 32 39 40 44 49
20 21 21 21 20 20 19 18 18 18 18 17 17 17 17 17 17 18 19 21 23 25 26 28 29 29 29 28 28 27 26 25 25 24 24 24 25 25 25 26 26 27 27 28 28 29 29 30 31 31 33 33 34 35 35 36 36 36 37 37 37 37 37 37 37 37 36 38 37 34 32 32 32 29 29 29 28 28 28 28 30 38 43 44 49
19 20 20 20 20 20 18 18 18 18 18 17 17 17 17 17 18 19 20 22 24 25 27 28 28 28 27 25 23 22 21 21 22 22 22 23 23 23 24 25 25 26 27 27 28 28 29 29 30 30 31 32 33 34 35 35 36 36 37 38 38 38 38 38 39 38 37 36 36 34 31 32 33 30 28 29 29 28 29 29 29 34 42 46 48
20 20 21 20 20 19 18 17 17 18 18 17 17 17 17 18 18 19 21 22 24 25 26 26 25 24 22 20 20 19 19 19 20 20 21 22 23 24 24 25 26 26 27 28 29 29 30 30 30 31 31 31 32 33 35 37 37 37 36 37 38 38 38 38 39 40 39 37 36 35 33 33 34 30 28 29 30 29 29 29 29 30 36 44 49
21 20 20 19 19 18 17 17 17 17 17 17 17 17 17 18 18 19 20 21 22 23 23 22 20 18 17 17 18 18 18 19 19 20 22 23 24 25 26 27 27 28 28 29 30 31 31 31 32 32 32 32 32 32 32 34 37 38 38 38 38 39 38 37 37 39 40 38 36 35 32 32 33 32 29 29 29 28 28 29 29 29 30 38 48
21 21 20 19 18 18 17 17 17 16 16 16 16 17 17 17 17 17 18 19 20 20 18 17 15 15 15 16 17 18 19 20 21 22 23 24 25 26 27 27 28 28 28 28 29 30 31 32 33 34 34 34 33 32 31 31 33 35 37 38 39 40 40 39 37 37 40 40 37 35 33 32 32 33 31 29 29 28 28 29 28 27 27 33 44
22 21 20 18 18 17 16 15 15 15 14 14 15 16 16 16 15 15 16 17 16 14 12 12 12 13 14 15 16 18 19 20 22 22 23 24 25 26 27 28 28 29 29 29 30 30 31 32 33 34 35 35 34 33 32 31 31 31 32 33 36 38 40 41 39 37 38 40 39 37 34 32 30 31 31 29 28 28 27 26 26 26 26 28 36
21 20 19 18 16 15 14 14 13 13 13 13 14 14 14 13 13 13 13 12 10 9 9 10 11 12 14 15 16 18 19 20 22 23 24 25 26 27 28 28 29 30 30 31 32 32 32 32 33 33 34 34 34 34 33 32 31 31 31 30 31 34 37 40 41 39 38 39 40 38 36 32 29 30 32 30 28 29 27 25 25 27 27 26 29
18 17 16 15 13 13 12 11 11 11 12 12 12 12 11 10 10 9 8 7 7 7 8 10 11 12 13 15 16 18 19 20 22 23 24 26 27 28 28 29 30 31 32 33 33 33 34 34 34 34 34 35 35 34 34 33 32 31 31 31 30 30 32 36 39 40 39 38 39 39 36 33 31 30 31 31 30 30 29 26 25 27 29 28 26
15 13 12 12 11 11 10 10 10 10 10 11 10 8 7 6 6 5 5 5 6 7 8 9 10 12 13 14 16 18 19 21 22 23 25 26 27 28 29 30 31 32 33 34 34 35 35 36 36 36 36 36 36 35 35 35 34 33 32 32 32 31 30 31 35 38 39 37 38 39 36 33 32 31 30 32 31 30 29 27 26 27 28 28 26
14 12 11 10 9 8 8 8 9 9 9 8 6 4 4 4 4 4 5 5 5 7 8 9 10 11 13 15 16 18 19 21 22 23 25 26 27 28 29 30 31 31 32 33 35 35 36 36 37 37 36 35 34 34 34 34 35 35 33 32 32 32 30 29 30 32 36 36 37 38 36 33 32 31 30 31 31 28 28 27 27 27 27 27 28
13 11 9 7 6 6 7 8 8 8 6 4 2 2 3 4 4 4 4 4 5 6 8 9 10 12 13 15 16 18 19 21 22 24 25 26 27 28 29 30 30 31 32 33 34 35 36 37 37 36 36 35 34 32 31 32 34 34 32 30 30 31 30 29 29 29 31 33 34 35 34 32 31 30 30 31 31 29 28 28 27 27 27 27 27
10 8 7 5 5 6 7 8 8 6 4 1 2 4 5 5 4 3 3 4 5 6 7 8 10 12 13 15 16 18 19 21 23 24 25 26 27 28 28 29 30 31 32 34 35 36 37 38 38 37 36 35 35 34 32 32 32 31 29 28 28 29 29 28 28 28 29 30 31 30 29 29 29 29 29 30 31 30 29 28 27 26 26 27 26
8 7 6 5 6 8 9 8 7 5 3 4 6 6 6 4 2 1 2 4 5 6 7 9 11 12 14 15 17 18 20 22 23 24 25 26 26 27 28 29 30 31 33 34 36 38 38 39 39 38 37 37 37 36 35 34 33 31 29 27 27 28 27 25 25 26 26 28 29 28 27 28 29 30 29 30 32 31 29 28 27 26 27 26 25
8 6 5 6 7 8 8 7 6 5 6 7 8 7 5 3 1 1 2 3 4 6 8 10 11 13 14 16 17 19 20 22 23 24 24 25 26 27 28 30 31 32 34 36 38 39 40 41 41 40 40 39 39 39 38 36 36 34 33 32 30 27 24 23 23 24 25 25 25 26 28 29 29 29 30 30 30 29 28 28 27 26 26 26 25
7 6 6 7 7 7 8 8 7 8 9 9 8 6 4 2 1 1 2 3 5 7 9 10 12 14 15 16 18 19 20 21 22 23 24 25 26 28 29 30 32 34 36 38 39 41 43 43 43 43 42 41 41 40 39 38 36 35 35 34 32 28 25 23 22 23 25 23 18 19 25 28 28 28 30 31 30 27 26 27 25 25 25 26 25
8 8 8 9 9 9 9 9 10 10 10 9 7 5 4 3 2 2 2 4 6 8 10 11 13 14 15 17 18 19 20 21 22 23 24 25 27 28 29 31 33 35 36 38 40 42 43 44 44 44 43 42 42 41 39 37 35 33 32 31 29 27 24 22 21 21 22 19 14 12 17 23 25 26 29 31 30 27 25 24 24 24 24 24 25
10 10 10 11 11 11 11 11 11 11 9 8 7 5 4 3 2 2 3 5 7 9 10 12 13 15 16 17 18 19 20 21 22 23 24 25 27 28 30 32 34 35 36 38 40 41 42 43 42 42 43 42 41 40 37 35 33 31 30 28 25 23 21 20 18 17 15 13 8 7 10 17 22 25 27 28 26 25 24 23 23 24 24 24 24
12 12 12 12 12 12 12 12 12 10 9 8 6 5 4 2 2 2 4 6 8 10 11 12 14 15 15 16 17 18 20 21 22 23 24 25 27 29 30 32 33 34 36 37 39 40 40 40 39 39 40 40 39 38 35 34 32 31 29 26 24 22 20 18 16 14 12 9 5 3 7 11 16 20 23 24 23 22 23 24 25 24 23 23 23
14 14 14 13 13 13 13 13 11 10 9 7 6 5 3 2 2 3 5 7 9 10 11 12 14 14 15 16 16 18 19 20 22 23 24 25 27 28 30 31 32 33 35 36 36 37 37 37 37 37 37 38 37 36 34 32 32 30 28 26 24 22 20 18 17 15 13 11 7 4 2 1 5 10 16 19 20 21 22 22 22 21 19 19 19
15 15 15 14 14 14 14 12 11 10 8 7 5 4 2 2 3 5 7 8 9 10 11 12 13 13 14 15 16 17 18 20 21 22 23 25 27 28 29 31 31 32 33 33 33 33 33 33 34 35 36 36 36 34 32 32 31 30 30 30 29 27 24 21 20 19 16 16 16 14 13 12 8 3 4 9 12 15 15 15 16 16 16 16 16
16 16 16 16 15 15 13 12 10 9 8 6 4 3 3 3 5 6 7 8 9 10 11 11 12 13 13 14 15 16 17 19 20 21 22 24 26 27 28 29 30 30 31 31 30 30 30 31 32 34 35 36 36 34 33 31 31 31 32 33 34 35 33 30 29 26 22 20 20 20 19 17 15 12 7 2 3 5 6 8 10 11 11 12 12
17 17 17 17 16 14 12 11 10 8 7 5 4 3 3 4 5 6 7 8 8 9 10 11 11 12 12 13 14 15 16 18 19 20 22 23 25 26 27 28 29 29 30 29 28 28 28 29 30 32 33 34 35 35 34 33 32 32 33 34 36 39 39 38 37 34 31 27 25 23 21 18 15 13 12 10 7 6 5 4 5 5 5 5 6
18 18 18 17 15 13 12 10 9 7 6 5 4 4 4 5 5 6 7 7 8 9 10 10 11 11 12 13 14 15 16 17 18 19 21 23 24 25 26 27 28 29 29 28 27 27 26 26 27 29 31 32 33 34 35 35 35 35 35 36 37 38 39 39 39 38 35 33 31 27 23 20 18 16 16 14 12 11 10 7 5 4 4 3 2
19 19 18 16 14 13 12 10 8 7 6 5 5 5 5 5 6 6 7 7 8 9 9 10 10 11 12 13 14 15 16 17 19 20 21 23 24 24 26 27 28 29 28 27 26 26 25 25 27 28 30 32 33 35 35 36 36 36 36 37 38 38 39 40 40 39 37 37 37 35 29 25 22 20 18 17 15 14 12 10 9 8 7 7 6
20 19 17 15 14 12 11 9 8 7 7 6 6 6 5 5 5 6 7 7 8 9 9 10 10 10 11 13 14 16 17 18 19 20 21 22 23 24 25 27 27 28 28 27 26 25 25 26 28 30 31 32 33 35 36 36 36 36 37 37 38 39 39 40 40 40 38 38 40 39 35 31 29 26 23 21 20 18 16 14 13 11 9 8 8
20 18 16 15 14 12 11 10 9 8 7 7 6 6 5 6 6 6 7 8 8 9 9 10 10 11 12 13 15 16 17 18 19 19 20 21 22 23 24 25 26 27 27 26 26 26 27 28 29 30 31 32 33 34 36 36 37 37 37 37 38 38 39 39 39 38 38 39 39 39 37 35 34 32 29 26 24 21 19 17 16 14 13 12 11
19 18 16 15 13 12 11 11 10 9 8 7 7 6 5 6 6 7 7 8 8 9 9 10 11 11 12 14 15 16 17 17 18 18 19 20 21 22 23 24 25 25 25 25 26 27 28 29 29 30 30 31 32 32 34 35 36 37 37 37 37 37 37 37 37 37 38 38 38 38 38 38 37 36 34 31 29 26 23 22 21 20 20 19 17
20 18 17 15 14 13 12 11 10 9 8 7 6 5 5 5 6 6 7 7 8 9 10 10 11 12 13 14 15 15 16 16 17 18 19 20 21 22 23 23 23 23 24 25 26 27 28 28 29 29 30 30 30 31 32 33 34 35 36 36 36 36 36 36 35 35 36 37 37 37 39 38 38 37 36 35 33 32 30 29 27 26 25 25 24
20 19 17 16 15 14 13 11 10 9 8 6 5 5 4 4 5 6 6 7 8 9 10 10 11 12 12 13 14 15 15 16 16 18 18 19 20 21 21 21 21 22 23 24 25 26 27 28 28 29 29 30 30 31 31 31 32 33 34 34 35 35 35 35 35 35 35 35 35 36 37 37 37 38 37 36 36 35 35 34 33 31 29 28 27
21 19 18 17 15 14 12 11 9 8 7 5 4 4 3 3 4 5 6 8 9 10 10 11 11 12 12 12 13 14 14 15 16 17 18 19 20 20 20 20 21 22 22 23 24 25 26 26 27 28 29 29 30 30 31 31 31 32 32 33 33 33 34 35 35 34 35 34 34 34 35 35 35 36 36 36 36 36 36 35 34 33 32 30 29
21 20 18 17 15 13 12 10 8 7 6 4 4 3 2 2 3 4 6 7 9 10 10 10 11 11 11 11 12 12 13 14 14 15 16 18 18 19 19 20 20 21 21 22 23 24 24 25 26 27 27 28 29 29 30 30 30 31 31 31 32 32 32 33 33 33 33 34 34 33 34 34 33 33 33 34 34 34 34 34 33 33 32 31 30
22 20 19 17 14 13 11 9 7 6 5 4 3 2 1 1 2 3 5 6 8 9 9 10 10 10 10 10 11 11 12 12 13 14 15 16 17 17 18 19 19 20 20 21 22 22 23 24 24 25 26 27 27 28 28 28 29 29 29 29 30 30 30 31 31 31 32 32 33 33 33 33 33 32 32 32 32 31 31 31 31 31 30 29 28
22 20 18 16 14 12 10 9 7 5 4 3 2 1 0 1 2 3 4 5 6 8 8 9 9 9 10 10 11 11 11 11 11 13 14 15 16 16 17 17 18 18 19 20 20 21 22 22 23 24 24 25 26 26 27 27 27 27 27 28 28 29 29 29 29 29 30 30 31 31 32 31 32 31 31 30 30 30 29 29 28 27 27 27 27
22 20 18 16 14 12 10 8 7 5 4 3 2 2 1 2 2 3 3 4 5 6 7 8 8 9 9 10 10 10 10 11 11 12 13 13 14 15 15 16 17 17 17 18 19 20 21 21 22 22 23 24 24 25 25 26 26 26 27 27 27 27 27 28 28 28 28 29 29 29 30 30 30 30 29 29 29 28 28 27 27 26 25 25 25
21 19 17 15 13 11 10 8 7 6 5 4 4 3 3 3 3 4 4 4 4 5 6 7 7 8 8 9 9 10 10 10 10 11 11 11 12 13 14 15 15 16 16 17 18 18 19 20 21 21 22 22 23 23 24 24 25 25 26 26 26 27 27 27 27 27 26 27 27 27 27 28 28 28 28 28 28 27 27 26 26 26 25 24 24
20 18 16 14 12 11 9 9 8 7 7 6 6 5 5 5 5 5 5 5 5 5 5 6 7 8 8 8 8 9 9 9 10 10 10 11 11 12 13 14 14 15 16 16 16 17 18 19 19 20 20 21 21 22 22 23 23 24 25 25 25 26 26 26 26 25 25 25 25 25 25 25 26 26 26 26 26 26 25 25 25 24 24 24 23
21 18 16 14 12 11 10 10 9 9 8 8 7 7 7 7 7 7 7 7 7 7 7 7 7 8 8 9 9 9 9 9 10 10 10 10 11 12 13 13 14 14 15 15 16 16 16 17 18 18 19 20 20 20 21 21 22 22 23 23 24 24 24 25 25 24 24 24 24 23 23 23 23 23 24 24 24 24 24 23 23 23 23 22 22
20 18 16 14 13 12 11 11 10 10 9 9 9 9 9 9 9 9 9 9 9 9 8 9 9 10 10 10 10 10 11 11 11 11 11 11 11 12 12 13 13 14 14 15 15 15 16 16 16 17 18 18 19 19 19 20 20 21 21 22 22 22 23 23 23 23 23 23 23 22 22 21 21 21 20 20 21 21 21 21 21 21 20 20 20
20 17 16 14 14 13 12 12 11 11 11 10 11 11 11 11 11 11 11 11 11 11 11 11 11 11 12 12 12 12 13 13 13 13 13 13 13 13 13 13 14 14 14 15 15 15 15 16 16 16 16 17 17 18 18 18 19 19 20 20 21 21 21 21 21 21 21 21 21 21 21 20 20 19 19 18 18 18 18 18 18 18 18 18 18
19 17 16 15 15 14 13 13 12 12 12 12 13 12 12 12 13 13 12 12 12 13 13 13 13 13 14 15 15 15 15 15 15 15 15 16 15 15 15 15 15 15 15 15 15 15 15 16 16 16 16 16 16 16 17 17 18 18 19 19 20 20 21 21 21 20 20 20 19 19 19 19 19 18 17 17 16 16 15 15 15 15 16 16 16
19 17 16 16 15 15 14 14 14 14 14 14 14 14 14 14 14 15 14 14 14 15 15 15 15 15 16 16 17 17 17 17 17 18 18 18 18 18 18 17 17 17 16 16 16 16 16 16 16 16 16 16 16 15 15 16 16 17 18 18 19 20 20 20 20 20 20 19 19 18 18 17 17 17 16 16 15 15 14 14 13 13 13 13 13
20 18 17 17 16 16 16 15 15 15 16 16 16 16 16 16 16 17 17 17 17 17 17 17 17 17 18 18 19 19 20 20 20 20 20 20 20 20 20 20 20 20 19 19 18 18 18 18 17 17 17 17 16 16 16 16 16 17 17 18 19 19 19 19 19 20 20 19 19 18 17 16 16 15 15 15 15 14 14 13 12 12 12 11 11
20 19 18 17 17 17 17 17 17 17 17 18 18 18 18 18 18 19 19 19 19 19 19 19 19 19 20 20 21 21 21 22 22 22 22 22 22 22 22 22 22 22 22 22 21 21 20 20 19 19 18 18 17 17 17 17 18 18 18 19 19 19 19 19 19 19 19 19 19 18 17 16 16 15 14 14 14 13 13 13 12 11 11 11 10
20 19 19 18 18 18 18 18 18 19 19 20 20 20 20 20 20 20 20 21 21 21 21 21 21 21 22 22 23 23 23 23 23 23 23 23 24 24 24 24 24 24 24 24 24 24 23 23 22 21 21 20 19 19 18 18 19 19 19 20 20 20 20 19 18 18 18 19 19 18 17 16 16 15 14 13 13 13 12 12 12 11 11 10 10
20 20 20 19 19 19 19 20 20 20 21 22 22 22 23 22 22 22 22 22 22 23 23 23 23 23 24 24 24 24 24 24 24 25 25 24 25 25 25 25 25 25 26 26 26 26 26 26 25 24 23 23 22 21 20 20 20 20 20 21 21 21 21 20 18 18 18 18 18 18 18 17 16 16 15 14 13 13 13 12 12 11 11 11 10
21 20 20 20 20 21 21 21 21 21 22 23 24 24 24 24 23 23 23 23 23 24 24 24 25 25 26 26 26 26 26 26 26 26 26 26 27 27 26 26 25 25 25 26 27 27 27 27 27 27 26 25 25 24 23 23 22 22 21 22 22 22 21 20 19 18 17 17 18 17 17 17 17 16 16 15 15 14 13 13 12 12 12 11 11
Wind_Direction
234 235 234 235 238 239 241 246 255 263 267 272 277 281 286 292 295 297 298 300 304 307 310 312 313 313 314 314 315 315 315 314 314 313 312 312 311 310 309 309 308 307 306 304 303 301 300 298 295 294 293 291 291 289 288 288 287 287 288 288 288 287 285 284 288 292 292 290 289 287 285 284 281 281 284 275 260 255 252 246 242 240 237 236 233
234 234 234 235 238 239 241 247 255 261 266 271 275 280 285 290 292 294 296 299 304 307 309 311 311 312 312 313 314 314 314 313 313 312 311 311 310 309 308 308 307 306 305 303 302 301 299 297 295 293 292 290 289 288 287 286 286 285 286 285 285 285 282 279 281 284 287 289 290 288 283 282 283 279 279 279 269 260 257 252 246 242 236 234 232
234 234 233 235 238 239 241 247 253 259 265 269 274 279 284 287 289 292 296 299 303 305 307 308 308 310 312 313 313 313 313 312 311 310 310 309 308 308 307 307 307 306 306 304 303 302 301 299 298 296 294 292 289 288 286 284 284 283 283 282 282 282 280 278 277 278 280 282 286 289 287 281 281 281 277 279 276 265 260 256 250 246 239 232 231
236 234 233 234 237 238 240 245 252 257 263 268 273 278 282 285 287 290 294 298 301 303 304 306 308 311 312 313 313 312 312 311 310 310 309 309 310 310 310 311 311 310 310 309 308 307 305 304 302 300 298 296 293 290 287 285 283 282 281 280 279 279 279 278 277 277 278 278 279 283 285 282 280 280 277 276 277 270 266 262 252 247 243 234 230
238 232 231 232 234 235 238 244 251 257 263 269 273 277 280 283 285 289 293 296 300 302 304 307 310 312 313 313 313 313 313 313 313 314 315 316 317 318 319 319 319 318 318 317 315 314 312 310 308 306 304 301 298 295 292 289 285 282 280 278 276 276 276 277 277 276 276 277 277 275 278 281 279 278 276 274 277 275 271 268 254 246 245 237 230
235 228 227 228 230 233 237 244 251 257 264 269 273 276 279 282 285 289 294 297 301 304 307 310 312 313 314 315 316 318 319 320 322 325 326 328 328 329 329 328 327 327 325 324 323 321 319 317 314 312 310 307 304 301 297 294 290 286 283 279 276 274 273 274 275 275 274 274 275 274 275 279 277 275 276 274 276 278 274 273 260 246 243 238 230
229 224 225 226 229 232 238 245 252 259 264 268 272 276 279 283 287 291 295 299 302 306 309 312 314 315 317 320 323 327 331 334 336 337 336 336 336 336 336 335 334 333 331 329 328 326 324 322 319 317 315 312 310 307 303 300 296 292 288 283 279 275 271 271 272 273 273 271 272 271 268 272 275 274 274 271 269 270 271 275 270 254 245 239 232
224 222 224 226 229 235 240 247 254 260 264 268 272 277 281 284 288 293 297 301 305 309 312 314 316 319 323 330 335 339 344 345 344 343 341 341 342 341 341 340 339 338 336 333 332 330 329 327 325 322 321 318 315 312 310 307 303 299 295 290 286 281 275 270 269 271 272 270 269 267 264 267 272 272 270 269 267 268 271 274 276 271 257 243 235
222 222 224 227 232 238 243 250 256 261 265 269 274 279 282 286 290 295 301 306 310 313 316 318 323 329 336 343 346 348 350 349 347 347 346 346 346 345 344 343 341 340 338 336 335 333 331 329 328 326 324 323 321 318 315 312 308 305 301 297 292 288 282 275 269 267 270 270 267 265 262 262 267 270 268 266 267 269 270 271 274 280 271 249 235
223 223 225 229 234 239 245 251 256 261 266 271 276 280 283 287 294 301 308 313 315 317 321 327 336 345 350 352 353 353 352 352 351 351 351 350 349 347 346 344 343 341 340 338 337 335 333 331 330 328 326 324 323 321 318 315 312 309 306 302 297 293 288 283 276 268 266 268 267 264 259 255 259 266 267 265 266 265 266 270 273 278 277 258 239
221 222 225 229 234 239 246 252 257 263 269 273 277 280 285 292 300 309 315 318 321 326 335 346 353 356 357 357 356 355 354 354 355 354 354 353 351 350 349 347 345 344 342 341 339 338 337 334 332 329 327 324 322 321 319 316 314 311 308 304 299 294 290 287 283 275 267 264 264 263 259 254 254 261 263 261 263 264 265 269 272 274 277 270 252
220 222 225 230 235 241 247 254 260 265 270 275 278 281 288 298 309 318 323 327 336 347 357 2 3 2 0 359 357 357 357 356 357 356 356 355 354 353 351 349 348 346 345 344 342 341 340 337 335 331 328 325 323 321 319 317 316 315 311 307 300 293 287 284 282 279 272 265 262 261 260 255 249 254 260 260 259 263 263 263 270 274 276 278 270
219 223 228 234 239 245 251 256 261 266 271 274 277 283 294 309 322 328 337 350 3 11 11 8 6 3 0 359 358 358 359 358 359 359 358 357 357 355 353 352 352 350 349 348 346 344 342 340 338 335 332 329 326 324 322 320 319 318 314 311 305 296 286 279 277 277 276 270 263 259 260 257 247 245 256 260 257 258 260 260 262 268 271 276 281
218 224 234 243 247 251 255 260 264 268 270 271 277 289 309 327 341 353 12 25 24 19 14 8 5 1 0 1 2 2 2 2 2 2 0 360 359 357 356 357 356 355 353 351 349 348 346 344 341 338 336 333 331 329 327 325 324 322 319 314 310 304 292 280 274 272 272 272 266 260 258 257 248 240 246 257 258 256 259 259 258 262 269 274 278
222 226 233 243 250 258 265 267 267 266 266 270 282 309 341 6 30 44 44 35 23 14 8 5 3 3 4 6 6 6 6 5 5 4 3 2 1 359 359 360 359 358 356 355 353 352 350 348 345 341 338 336 334 332 330 328 326 324 321 317 312 308 299 287 278 272 268 267 267 263 259 257 250 240 239 250 256 256 258 259 259 260 265 267 266
217 219 223 234 250 267 273 272 267 263 264 272 297 28 59 70 74 68 48 24 12 7 5 5 6 9 10 10 9 9 8 8 7 7 5 4 2 2 2 1 0 360 359 359 358 356 354 353 350 346 342 339 338 336 332 329 327 325 322 318 313 310 302 290 284 280 273 266 263 263 261 258 251 242 238 245 251 254 255 257 259 259 260 262 261
208 209 214 228 250 267 272 269 263 257 251 217 108 97 97 98 93 73 30 12 8 6 8 10 12 13 13 12 12 11 10 10 10 9 7 5 4 3 2 2 2 2 2 2 2 2 1 359 356 352 349 345 343 340 337 333 330 328 323 317 313 310 304 293 285 285 282 271 261 258 260 259 252 243 241 246 250 249 249 252 256 258 259 262 263
203 205 217 239 256 264 264 257 246 225 182 134 119 116 117 116 103 54 18 13 10 10 13 16 16 16 15 14 13 13 12 12 11 10 8 6 4 4 3 3 4 4 5 6 6 6 5 4 2 359 355 352 348 345 342 338 336 336 331 325 319 312 307 299 290 288 291 282 264 253 254 255 250 243 241 246 249 247 246 251 255 256 257 260 264
208 213 234 250 252 251 240 223 202 171 143 130 128 129 129 129 110 43 26 18 16 17 18 19 18 17 16 15 14 14 14 13 11 10 8 6 5 5 5 5 6 6 7 9 9 9 8 7 6 4 359 356 352 350 347 344 342 343 341 337 331 325 321 317 306 300 301 293 270 251 246 247 247 243 241 244 246 244 246 251 253 252 253 255 258
216 220 229 228 221 211 197 182 164 146 137 134 136 139 140 144 129 67 44 27 22 23 21 20 18 17 16 16 15 14 13 12 11 9 8 7 7 7 7 8 9 9 10 11 10 10 10 8 7 5 1 358 356 354 352 349 346 344 342 340 338 339 341 338 330 323 317 308 283 251 240 240 241 241 240 241 244 245 247 247 246 248 249 250 253
204 204 202 196 187 179 171 160 147 139 139 140 144 150 156 154 131 80 49 29 25 24 21 19 18 17 16 15 14 13 12 11 9 8 8 8 8 9 10 11 11 12 12 13 12 12 10 9 7 4 1 360 359 357 355 353 350 344 341 341 342 344 346 344 340 337 331 319 297 260 244 244 244 240 238 240 242 243 242 240 240 244 245 246 250
190 188 182 176 170 164 157 148 141 140 146 152 156 161 162 152 122 74 41 29 26 23 19 17 17 16 15 13 12 12 11 10 9 8 8 9 10 11 13 14 14 14 14 15 14 13 11 9 7 4 2 1 0 360 358 357 354 348 344 343 343 344 348 349 342 337 334 322 295 248 237 244 239 230 230 236 237 234 234 236 241 244 244 246 249
180 174 168 165 160 155 149 143 142 149 159 164 163 161 158 144 101 52 31 27 25 20 17 16 16 15 14 12 11 11 11 10 9 9 9 11 13 14 16 18 17 16 16 17 15 13 11 10 8 6 5 4 3 3 3 2 1 358 354 351 348 346 350 355 353 347 344 338 311 221 202 216 215 208 211 218 222 224 231 237 241 244 245 247 249
169 163 161 159 154 150 147 146 152 161 166 166 163 156 148 116 59 35 27 25 22 18 16 15 16 14 12 11 11 12 12 11 10 11 12 14 16 18 19 20 19 18 19 19 16 13 12 10 9 9 9 8 7 7 8 10 11 10 7 4 4 360 356 359 4 4 2 7 14 31 62 146 200 200 204 208 211 218 228 235 237 238 242 244 246
162 159 157 154 151 150 151 155 162 165 165 163 157 144 120 71 44 32 28 25 21 18 16 14 14 13 12 12 13 13 14 14 13 14 15 16 18 20 22 22 21 21 22 22 18 15 13 11 9 11 13 13 13 13 13 16 20 21 20 18 19 18 15 14 16 16 12 17 27 35 36 33 35 67 196 214 216 216 222 232 237 238 238 241 244
159 158 155 153 152 153 157 162 164 163 161 156 144 119 85 58 45 35 30 26 21 18 16 14 13 14 13 13 15 16 17 16 15 16 17 19 21 22 23 24 23 23 25 24 19 17 15 13 12 14 16 16 17 18 19 21 23 25 26 26 26 27 28 27 26 25 23 21 26 31 35 35 35 42 57 90 196 202 205 219 229 233 236 239 242
159 156 154 155 156 158 162 163 160 157 152 140 120 97 74 57 47 39 32 25 20 17 16 15 14 15 15 15 16 18 19 18 18 18 19 21 23 23 24 25 24 25 26 25 21 19 18 17 16 18 20 20 21 23 24 25 26 27 28 28 29 29 31 32 32 31 31 33 33 31 35 41 42 40 46 62 82 101 124 162 193 207 216 225 232
158 157 157 158 159 161 161 157 153 148 137 120 105 87 69 56 47 39 30 23 21 18 16 16 16 15 16 17 18 20 21 20 20 20 21 23 23 23 25 25 25 26 27 25 23 22 21 20 21 22 24 24 25 27 28 28 29 30 30 30 30 30 30 33 35 35 34 38 40 37 35 41 46 45 42 45 59 76 89 101 114 127 132 120 102
159 158 158 158 160 159 155 150 146 137 124 112 101 85 70 58 49 41 33 27 23 19 17 17 17 17 19 21 22 23 22 20 20 21 22 23 23 23 25 26 25 27 27 25 24 24 24 24 25 26 26 27 27 28 30 31 31 32 33 33 33 32 32 33 35 35 35 39 41 40 38 40 44 46 45 44 45 52 60 69 77 79 80 80 77
160 159 159 159 159 155 150 145 139 129 121 113 100 87 74 64 54 45 38 31 25 21 19 18 18 20 22 23 24 25 24 22 21 22 23 24 23 23 25 25 26 27 26 25 24 25 25 27 28 28 28 28 28 29 30 31 32 33 34 34 34 35 35 35 35 35 36 39 41 39 39 43 45 45 45 45 45 45 47 50 54 56 60 67 71
160 160 160 158 156 152 146 141 135 128 123 114 100 90 78 65 54 46 39 32 25 21 19 18 19 22 23 24 25 25 25 24 23 23 24 25 24 24 25 25 26 27 26 24 25 26 27 29 30 31 30 30 29 29 30 31 31 32 33 34 34 35 35 36 36 36 36 39 40 40 40 43 46 46 46 46 46 46 47 48 49 49 50 53 60
161 160 159 156 153 150 145 140 137 130 123 115 103 93 79 63 53 46 40 32 26 21 19 19 21 23 24 25 25 24 24 24 24 24 26 26 25 26 26 26 26 26 25 24 25 27 28 30 31 32 33 32 31 31 31 31 30 31 32 34 35 35 35 35 35 36 38 38 39 40 41 43 46 46 46 47 47 47 49 50 52 52 51 50 52
162 160 159 155 152 150 146 142 139 132 124 116 105 91 75 61 52 45 39 35 29 24 20 20 22 23 24 25 25 24 24 23 23 25 26 27 27 28 27 26 25 25 25 25 26 28 29 31 32 33 34 34 33 33 33 33 32 31 31 33 34 34 35 36 35 36 39 40 39 39 41 42 45 47 46 46 47 47 47 48 49 51 54 55 54
162 160 159 157 154 153 149 145 142 136 127 118 107 91 74 58 46 39 36 34 31 28 24 22 21 22 23 24 24 24 23 22 23 25 25 26 27 28 27 25 25 26 27 27 28 29 29 31 32 33 33 34 34 35 35 35 35 34 33 33 34 34 34 36 35 35 38 40 39 41 42 42 43 45 45 45 46 46 46 46 45 45 48 50 51
162 161 161 160 158 156 152 149 145 139 131 123 112 96 76 55 39 32 32 30 27 27 26 23 21 20 20 22 23 23 22 23 23 24 25 26 27 27 26 25 26 27 28 28 28 29 29 30 31 32 33 33 34 35 36 35 36 36 34 34 35 34 34 35 34 34 37 39 39 40 42 43 43 44 44 43 44 44 45 45 45 45 45 44 45
164 163 162 162 161 159 156 153 149 144 139 133 125 110 82 47 29 27 28 27 26 25 24 22 22 19 17 18 21 22 22 23 23 24 24 26 26 25 24 25 26 27 28 29 29 29 30 31 31 32 33 33 33 33 35 35 36 36 36 35 36 35 35 36 35 34 35 38 38 39 41 42 43 44 45 45 44 43 43 43 43 44 45 44 44
166 166 165 164 164 162 159 158 156 152 148 146 142 127 86 22 10 18 23 24 25 24 21 20 20 18 16 16 17 19 21 21 22 23 23 24 24 23 22 23 24 25 27 29 29 30 31 31 32 32 33 33 33 33 33 34 35 36 36 36 37 37 36 36 36 35 36 37 38 38 39 40 41 42 43 44 45 44 44 44 43 43 43 44 45
169 169 167 167 167 166 165 166 167 167 166 167 169 169 201 328 338 357 11 17 19 19 17 17 16 14 13 13 11 12 15 17 18 21 21 20 20 19 19 20 20 22 24 26 26 28 29 29 30 31 32 33 33 33 33 33 34 34 35 35 36 37 37 37 36 36 36 37 37 38 38 40 41 41 41 42 43 44 44 44 45 45 45 45 45
173 172 172 172 172 172 173 176 181 187 191 196 209 229 253 289 309 324 344 358 6 9 10 10 9 8 8 7 5 4 6 8 12 15 15 14 14 13 13 15 15 16 18 20 22 24 25 26 27 28 29 30 31 31 32 32 32 32 33 34 35 35 36 36 36 36 36 37 38 38 38 38 40 40 40 41 43 43 42 43 43 44 46 46 46
177 177 177 178 179 181 183 188 196 205 212 218 230 243 257 274 289 300 312 326 338 349 355 358 359 358 358 359 358 356 356 359 2 3 3 4 4 5 6 8 9 10 11 13 15 17 19 20 22 23 24 26 27 28 29 29 29 29 30 31 32 33 34 34 34 35 35 36 37 37 37 37 38 39 39 40 42 42 42 42 42 42 43 44 45
182 183 184 186 188 191 196 202 211 219 227 234 242 252 262 270 279 287 294 300 309 320 330 337 341 343 344 345 345 345 345 347 348 349 350 351 353 355 357 359 1 2 3 5 7 10 12 14 16 18 19 21 23 24 25 26 26 27 28 28 28 29 30 31 32 32 32 33 35 36 36 37 37 37 37 37 39 40 41 41 42 42 41 42 43
187 188 190 193 198 204 210 216 222 230 236 243 249 256 262 268 274 280 285 289 295 300 306 313 319 323 327 329 329 330 331 332 333 334 336 337 338 342 346 348 351 353 355 357 359 0 3 6 9 12 15 17 17 19 21 22 23 24 25 26 26 26 27 27 28 28 29 31 31 32 33 34 35 36 36 35 36 37 37 38 40 41 41 40 40
192 193 196 201 207 215 221 225 231 237 242 248 252 257 262 266 271 275 279 283 287 291 295 300 303 306 311 314 316 317 318 319 320 321 322 323 325 328 332 336 339 343 345 348 349 351 353 356 359 3 7 11 13 14 16 17 19 21 22 23 23 23 24 24 24 24 25 26 27 29 30 31 32 33 33 33 33 34 34 35 35 37 39 39 39
196 198 202 208 214 222 228 233 238 243 248 252 256 259 262 264 267 271 274 278 282 286 289 293 295 298 301 303 305 307 309 310 311 311 311 312 313 314 317 322 326 330 334 336 338 341 344 346 349 353 356 0 4 8 10 12 14 16 17 19 19 19 19 20 20 20 20 21 22 24 26 27 28 29 29 29 30 30 30 31 31 32 34 36 36
200 203 209 215 221 228 233 238 243 248 253 257 259 261 263 266 268 269 271 275 278 282 285 288 291 294 296 298 299 301 302 303 304 305 305 306 306 306 307 309 312 316 321 324 327 330 333 336 339 342 345 348 352 356 0 4 6 8 10 11 12 13 14 14 14 15 15 15 16 18 19 21 23 24 25 25 25 24 24 24 25 26 28 29 30
203 207 214 221 227 233 238 243 248 252 256 259 261 263 265 267 269 271 272 274 276 279 282 285 288 291 293 294 296 297 298 298 300 300 301 301 302 302 302 303 304 306 308 312 315 319 322 325 328 331 333 337 339 341 345 349 352 355 358 1 2 4 6 7 8 8 8 8 9 10 11 13 15 16 18 20 21 21 20 18 16 17 18 18 20
207 212 218 225 231 236 242 246 251 254 257 260 262 264 267 268 270 272 273 274 276 278 280 283 285 288 290 291 293 294 296 297 297 298 298 298 298 298 299 299 300 300 301 302 305 308 310 313 317 320 323 325 328 330 331 332 335 338 342 346 350 354 356 357 359 0 0 0 0 1 2 4 5 7 8 10 11 13 14 14 12 10 7 5 6
212 217 223 229 234 240 245 249 253 256 259 261 262 264 266 268 270 271 273 275 277 279 281 283 284 285 287 288 289 291 293 295 296 297 297 297 296 296 296 296 296 297 297 298 298 299 301 304 306 309 312 314 317 320 321 322 323 325 328 331 336 342 345 347 349 351 353 354 354 353 352 354 355 356 357 358 360 1 3 4 5 5 2 359 355
218 223 228 233 238 243 248 252 256 259 261 263 264 265 266 267 269 271 274 276 279 281 283 284 285 286 286 287 287 288 289 290 291 293 294 294 294 294 294 294 294 294 294 295 295 295 296 297 298 300 302 305 307 309 312 314 315 317 319 322 325 330 335 339 340 342 345 347 348 347 347 346 346 346 346 347 348 349 349 351 352 353 353 353 350
223 228 232 237 242 246 250 254 257 260 263 265 265 266 267 269 271 273 275 278 280 283 284 286 287 287 287 287 287 287 287 286 287 288 289 290 290 290 289 289 290 290 291 292 292 292 293 293 293 294 295 296 298 300 302 305 307 309 311 314 317 322 327 331 332 333 336 339 341 342 343 343 342 340 339 337 337 337 338 338 339 338 338 338 338
228 232 236 241 244 248 252 256 258 261 263 265 266 267 269 270 273 275 276 279 281 283 284 286 287 287 288 288 288 288 287 286 285 285 286 286 286 286 285 285 285 285 286 287 288 289 289 290 290 290 291 291 292 293 294 296 299 302 304 307 310 313 318 322 324 324 327 330 333 335 337 338 339 338 336 333 331 329 328 327 327 326 326 325 324